Regional Weather Roundup
Issued by NWS Wakefield, VA

Home | Current Version | Previous Version | Text Only | Print | Product List | Glossary Off
Versions: 1 2 3 4 5 6 7 8 9 10 11 12 13 14 15 16 17 18 19 20 21 22 23 24 25 26 27 28 29 30 31 32 33 34 35 36 37 38 39 40 41 42 43 44 45 46 47 48 49 50

000
ASUS41 KAKQ 301115
RWRAKQ

REGIONAL WEATHER ROUNDUP
NATIONAL WEATHER SERVICE WAKEFIELD VA
700 AM EDT TUE AUG 30 2016

Note: "fair" indicates few or no clouds below 12,000 feet with no
significant weather and/or obstructions to visibility. * = Denotes
station may not report precipitation (e.g., rain,snow,etc.),
thunder or fog.

VAZ042-051-052>054-056-301200-
NORTHERN VIRGINIA

CITY           SKY/WX    TMP DP  RH WIND       PRES   REMARKS
WASH NATIONAL  PTCLDY    75  62  64 N10       30.14R
DULLES         PTCLDY    71  61  70 N6        30.15S
FORT BELVOIR   CLEAR     71  63  74 CALM      30.13R
QUANTICO       PTCLDY    73  66  78 NW7       30.13R
FREDERICKSBRG* CLEAR     71  71 100 CALM      30.12R
STAFFORD*      CLEAR     67  65  94 N5        30.17S
WARRENTON      CLOUDY    70  62  74 CALM      30.15R
CULPEPER*      MOCLDY    69  65  89 N3        30.16R
MANASSAS*      CLEAR     72  64  78 N6        30.14S
LEESBURG*      CLEAR     70  64  83 NW6       30.16S
WINCHESTER     CLEAR     66  61  82 CALM      30.17S
FRONT ROYAL*   FAIR      64  63  94 CALM      30.17R
LURAY*         FAIR      66  66 100 CALM      30.17S
$$

VAZ048-049-060>072-079>083-301200-
CENTRAL AND SOUTH CENTRAL VIRGINIA

CITY           SKY/WX    TMP DP  RH WIND       PRES   REMARKS
RICHMOND       PTCLDY    69  65  86 N3        30.11R
CHESTERFIELD*  FAIR      66  54  63 CALM      30.12R
PETERSBURG*    CLEAR    N/A N/A N/A CALM      30.11R
HANOVER        CLEAR     68  65  90 MISG      30.13R
TAPPAHANNOCK*  CLEAR     67  67 100 CALM      30.12R
QUINTON*       FAIR      66  65  97 NW3       30.10R
CHARLOTTSVILLE PTCLDY    70  66  87 CALM      30.15R
GORDONSVILLE*  PTSUNNY   73  64  73 CALM      30.14R
ORANGE*        NOT AVBL
LOUISA*        CLEAR     73  72  94 N6        30.13R
BUMPASS*       FAIR      69  69 100 CALM      30.13R
FARMVILLE*     MOCLDY   N/A N/A N/A N3        30.11S
CREWE*         FAIR      67  67 100 CALM      30.11R
FORT PICKETT*  FAIR      65  64  98 CALM      30.11R
CHASE CITY*    FAIR      67  65  94 NW3       30.12R
CLARKSVILLE*   FAIR      68  68 100 CALM      30.10R
SOUTH HILL*    CLEAR     66  64  92 CALM      30.16R
LAWRENCEVILLE* FAIR      66  64  94 CALM      30.10R
EMPORIA*         N/A     63  63 100 CALM      30.11R
$$

VAZ088>098-301200-
SOUTHEAST VIRGINIA

CITY           SKY/WX    TMP DP  RH WIND       PRES   REMARKS
NORFOLK        CLEAR     77  70  79 NE6       30.09R
VIRGINIA BEACH CLEAR     73  70  90 NE3       30.08R
NORFOLK NAVAL  PTCLDY    78  69  73 E5        30.10R
WEST POINT*    CLEAR     67  66  96 CALM      30.11S
SALUDA*        FAIR      75  72  90 CALM      30.09R
NEWPORT NEWS   CLEAR     71  71 100 CALM      30.09R
LANGLEY AFB    CLEAR     73  70  91 CALM      30.08R
FORT EUSTIS    CLEAR     73  70  90 VRB2      30.07R
WILLIAMSBURG*  CLEAR     72  72 100 N3        30.11R
HR EXEC AP*    FAIR      64  61  88 CALM      30.11R
FRANKLIN*      CLEAR     66  64  94 CALM      30.10R
US460-WAKEFLD  CLEAR     67  65  93 CALM      30.10R
$$

VAZ020-022-025-037-045-301200-
WEST CENTRAL AND SOUTHWEST VIRGINIA

CITY           SKY/WX    TMP DP  RH WIND       PRES   REMARKS
STAUNTON*      MOCLDY    63  63  97 CALM      30.20S
WAYNESBORO*    FAIR      65  64  96 CALM      30.20R
HOT SPRINGS VA CLEAR     65  64  95 E5        30.28S
LYNCHBURG      CLEAR     71  68  90 N6        30.16R
DANVILLE       CLEAR     65  64  97 CALM      30.12R
SOUTH BOSTON*  FAIR      64  62  96 CALM      30.11S
MARTINSVILLE   CLEAR     62  61  97 CALM      30.17R FOG
ROANOKE        CLEAR     69  67  93 CALM      30.19R
BLACKSBURG     MOCLDY    64  63  99 CALM      30.24S FOG
DUBLIN*        CLEAR     66  66 100 CALM      30.23S
MARION*        CLEAR     63  62  96 CALM      30.26S FOG
HILLSVILLE*    FOG       62  62 100 CALM      30.23S VSB 3/4
RICHLANDS*     FAIR      67  64  91 SE3       30.23S
WISE*          CLEAR     64  64 100 CALM      30.23S
ABINGDON*      CLEAR     68  65  90 CALM      30.19F
$$

MDZ021>025-VAZ099-100-301200-
SOUTHERN MARYLAND AND THE DELMARVA PENINSULA

CITY           SKY/WX    TMP DP  RH WIND       PRES   REMARKS
PATUXENT RIVER PTCLDY    75  64  68 NE9       30.11R
BAY BRIDGE APT CLEAR     73  63  68 NE8       30.12S
LEONARDTOWN    CLEAR     70  64  83 NE3       30.13R
DOVER          CLEAR     67  67 100 N6        30.12R
GEORGETOWN     CLEAR     72  67  84 N3        30.12R
EASTON         CLEAR     70  66  88 NE7       30.16R
CAMBRIDGE      CLEAR     70  63  78 N8        30.11R
SALISBURY      CLEAR     69  68  96 CALM      30.11R
OCEAN CITY     CLEAR     69  66  90 N3        30.11R
WALLOPS ISLAND PTCLDY    71  68  90 CALM      30.10R
ACCOMACK*      CLEAR     68  65  91 E3        30.10R
$$

NCZ012>017-030>032-301200-
NORTH CENTRAL AND EASTERN NORTH CAROLINA

CITY           SKY/WX    TMP DP  RH WIND       PRES   REMARKS
ROANOKE RAPIDS FAIR      64  64 100 CALM      30.10R
RALEIGH        PTCLDY    68  65  90 CALM      30.10R
ELIZABETH CITY CLEAR     73  71  93 NE9       30.08R
AHOSKIE*       CLEAR     67  65  94 CALM      30.10R
EDENTON*       CLEAR    N/A N/A N/A N6        30.09R
CURRITUCK*       N/A     77  74  91 NE9       30.08R
KILL DEVIL HLS PTCLDY    79  77  95 NE6       30.04S
MANTEO         CLOUDY    78  76  92 E12       30.05S
CAPE HATTERAS  CLOUDY    80  76  87 NE9G17    30.01R
TARBORO*       FAIR      67  66  94 N3        30.10R
GOLDSBORO      MOCLDY    69  69 100 NE3       30.06R
WASHINGTON     CLEAR     67  67  97 N3        30.07R
GREENVILLE     CLEAR     64  64 100 N3        30.09R FOG
NEW BERN       MOCLDY    72  70  93 N5        30.06R
WILMINGTON     PTCLDY    72  70  93 N5        30.04R
$$

VAZ048-301200-
ELSEWHERE

CITY           SKY/WX    TMP DP  RH WIND       PRES   REMARKS
HARRISBURG PA  PTCLDY    66  61  84 NW6       30.17R
BALTIMORE      PTCLDY    71  59  65 N5        30.13S
ANNAPOLIS      CLEAR     75  68  78 N3        30.13R
ANDREWS AFB    CLEAR     70  61  74 NE7       30.13R
PHILADELPHIA   PTCLDY    71  58  63 NE8       30.15R
HENDERSON NC   CLEAR     64  61  93 CALM      30.12R
GREENSBORO     PTCLDY    70  66  87 NE3       30.12S
ROCKY MOUNT    CLEAR     68  66  93 N5        30.09R
$$

VAZ100-301200-
MARINE

STATION/POSITION TIME  TEMP    WIND        PRES    WAVE   SWELL
                       AIR SEA DIR/SP/G            HT/PER HT/PER
                 (UTC) (F)     (DEG/KT/KT) (MB)    (FT/S) (FT/S)
BRANDYWINE LGT   1000   74      50/ 15/ 16   N/A
CAPE MAY NJ      1000   71 75   40/  3/  6 1018.8R
LEWES DE         1000   74 76   40/  8/ 10 1019.0R
OCEAN-CITY-INLET 1000   74 77   CALM  /  1 1019.1R
WACHAPREAGUE VA  1000   71 81   CALM  /  1 1018.2R
THOMAS POINT MD  1100   75 83   40/ 13/ 15 1021.3R
GOOSES REEF MD   1100   77 82   50/ 14/ 16 1020.2R   2/ 3
COVE POINT MD    1000   76      30/  8/ 10 1020.0R
SOLOMONS ISLAND  1000   77 84  350/  3/  4   N/A
BISHOPS HEAD MD  1000   74 83   30/  8/ 13 1019.0R
PINEY POINT MD   1000           60/  7/  9   N/A
POTOMAC MD       1100   78 83   40/ 14/ 16 1018.4R   1
CAMBRIDGE MD     1000   74 84   30/  8/  9 1018.5R
LEWISETTA VA     1000   78 84   50/  8/ 12 1018.5R
RAPPAHANNOCK LGT 1000          340/  3/  3 1018.7R
STINGRAY PT      1100   81 84  330/ 10/ 12 1019.2R   1
YORK RVR RNG VA  1000   79     340/  9/  9 1017.7R
YORKTOWN VA      1000   76 83  340/  7/  7 1017.9R
JAMESTOWN VA     1100   74 84  340/  4/  6   N/A     0
DOMINION TERM VA 1000   76      20/  3/  4 1018.2R
KIPTOPEKE VA     1000      80   40/  5/  7   N/A
CHES BAY BRIDGE  1000   79 80   10/  8/  9 1017.7R
CAPE HENRY VA    1000   78      20/ 10/ 11   N/A
WILLOUBY STN VA  1000   78     360/  5/  6   N/A
CAPE HENRY BUOY  1012      80                N/A     4/13   3/13
1ST LANDING BUOY 1100   79 80   70/  8/ 10 1018.6R   3/ 5
CAPE CHARLES BUO 1026      79                N/A     3/13   2/13
OFFSHORE WE BUOY 1021      80                N/A     5/13   3/13
64NM E OF VA BCH 1050   80 80   50/ 14/ 16 1017.6R   5/13   5/13
DUCK PIER NC     1000   79 79   40/ 15/ 17 1016.7R
44100 DUCK FRF   1005      80                N/A     4/13   2/13
44056 DUCK FRF   1011      79                N/A     4/13   2/13
OREGON INLET NC  1000   80 81   30/ 12/ 15 1016.8R
HATTERAS NC      1000   80 82   40/  9/ 16 1015.9R
DIAMOND SHLS NC  0950   76 84  100/ 19/ 27 1015.3    7/13   3/13
CAPE LOOKOUT NC  1100   79     360/ 12/ 14 1015.7F
$$



USA.gov is the U.S. government's official web portal to all federal, state and local government web resources and services.